Pilotenausbildung PDF Drucken E-Mail

Im Rahmen einer Ausbildung können folgende Qualifikationen/Berechtigungen erworben werden:

  • Privatpilot (PPL-A)
  • Berufspilot (CPL)
  • Segelflugschein (PPL-C)
  • Hubschrauberschein (PPL-H)
  • Ballonfahrer (PPL-D)
  • Instrumentenflug (IFR)
  • Sportpilot (SPL)
  • Kunstflug


Mehr Informationen erhalten Sie, wenn Sie auf die jeweiligen Firmennamen klicken.

Motorflug R, CH, Sch Air Hamburg

R, CH, Sch, K Canair

R, CH, Sch Flugschule Hamburg

R, CH, Sch, K Hanseair

Sch Aeroclub Hamburg (Motorflug) e.V.

Sch

Vereinigung Hanseatischer Fliegerfreunde e.V.

Hubschrauber R, CH, Sch CityCopter

R, CH, Sch Nordcopters GmbH
Segelflugzeug Sch Luftsportverein Kreis Pinneberg e.V.

Sch Segelflug-Club Uetersen e.V.
Bannerwerbung
Aerial Sign
Ultraleichflug R, CH, Sch

JoyAIR Ultraleicht (Sportpilot SPL)

Ballonfahrt
Balloon Adventure Hamburg
 

Zufallsbild

Aktuelle Termine

Mo Di Mi Do Fr Sa So
27 28 29 30 31 1 2
3 4 5 6 7 8 9
10 11 12 13 14 15 16
17 18 19 20 21 22 23
24 25 26 27 28 29 30

Pilotenwetter

[source: ADDS]
METAR
EDDH 250820Z 25010KT 210V280 9999 FEW009 BKN016TCU 06/04 Q1001 TEMPO 27015G25KT =
TAF
TAF EDDH 250500Z 2506/2612 VRB03KT 9999 BKN008 TEMPO 2506/2508 27012KT 4500 RA BECMG 2508/2511 28010KT SCT020 TEMPO 2508/2518 4500 SHRAGS BKN012CB PROB30 TEMPO 2508/2515 30015G25KT TSRAGS BECMG 2518/2520 24004KT TEMPO 2610/2612 SCT030CB =